[[{"header":{"parameterUnit":"m.s-1","parameterCategory":1,"la1":30.2991,"la2":30.254,"lo1":-89.0895,"lo2":-89.0444,"dy":0.0017,"dx":0.0017,"nx":28,"ny":28,"refTime":"2023-04-28T21:00:00:Z","depth":0,"parameterNumber":2,"parameterNumberName":"U-component_of_WINDS"},"data":[0,0,0,0,0,0,0,0,0,0,0,0,0,0,0,0,0,0,0,0,0,0,0,0,0,0,0,0,0,0,0,0,0,0,0,0,0,0,0,0,0,0,0,0,0,0,0,0,0,0,0,0,0,0,0,0,0,0,2.1044,2.1044,0,2.102,2.102,2.102,2.099,2.099,2.0989,2.0989,2.0966,2.0966,2.0966,0,0,0,0,0,0,0,0,0,0,0,0,0,2.1067,2.1067,2.1044,2.1044,2.1043,2.102,2.102,2.102,2.099,2.099,2.0989,2.0989,2.0966,2.0966,2.0966,0,0,0,0,0,0,0,0,0,0,0,0,0,2.1052,2.1067,2.1044,2.1026,2.1024,2.102,2.102,2.1019,2.099,2.099,2.0989,2.0988,2.0966,2.0966,2.0966,2.0978,0,0,2.0965,2.0965,0,0,0,0,0,0,0,0,2.1052,2.1051,2.1029,2.1027,2.1025,2.1007,2.102,2.1006,2.0991,2.1003,2.0989,2.0988,2.0981,2.0979,2.0976,2.0977,2.0976,2.0965,2.0965,2.0965,2.0965,0,0,0,0,0,0,0,2.1054,2.1052,2.1035,2.1029,2.1026,2.102,2.1017,2.1017,2.0996,2.1002,2.1,2.0997,2.0979,2.0976,2.0975,2.0976,2.0965,2.0965,2.0965,2.0964,2.0988,2.0989,0,0,0,0,0,0,2.1057,2.1053,2.1035,2.1034,2.1037,2.102,2.1017,2.1014,2.0996,2.0993,2.0998,2.0996,2.0977,2.0976,2.0975,2.0989,2.0965,2.0964,2.0964,2.0987,2.0988,2.0989,0,0,0,0,0,0,2.1058,2.1056,2.1036,2.1043,2.104,2.102,2.1017,2.1014,2.1011,2.0993,2.0989,2.0999,2.0977,2.0975,2.0978,2.0988,2.0964,2.0964,2.0986,2.0988,2.0989,2.1018,0,0,0,0,0,0,2.1058,2.1056,2.106,2.1043,2.104,2.1039,2.1018,2.1014,2.101,2.1007,2.0993,2.099,2.0976,2.0978,2.0978,2.0987,2.0964,2.0985,2.0987,2.0988,2.1016,2.102,2.1023,0,0,0,0,0,2.1059,2.1069,2.106,2.1058,2.1044,2.104,2.1038,2.1022,2.1011,2.1015,2.1004,2.099,2.0987,2.0979,2.0978,2.0987,2.0985,2.0986,2.0988,2.1014,2.1019,2.1023,0,0,0,0,0,0,2.1088,2.1066,2.1056,2.1061,2.1052,2.1035,2.1039,2.1027,2.1022,2.1019,2.1,2.0997,2.1003,2.0995,2.0987,2.1,2.0984,2.0985,2.1004,2.1008,2.1012,2.1014,2.0964,0,0,0,0,0,2.1094,2.1092,2.1074,2.108,2.1076,2.1059,2.1056,2.1045,2.1035,2.1032,2.1021,2.1013,2.101,2.1009,2.1005,2.1015,2.1012,2.1021,2.1025,2.1028,2.1029,2.1035,2.1039,2.0995,2.0995,2.0995,0,0,2.1108,2.1097,2.1096,2.1085,2.1077,2.1077,2.1056,2.1056,2.1055,2.1032,2.1034,2.1026,2.1016,2.1023,2.1025,2.1017,2.1041,2.103,2.1033,2.1032,2.1037,2.1042,2.1045,2.0996,2.0996,2.0996,0,0,2.1133,2.1124,2.1128,2.1121,2.1109,2.1098,2.1099,2.1084,2.1078,2.1079,2.1062,2.1062,2.1058,2.1052,2.1048,2.1073,2.106,2.1073,2.1092,2.1097,2.1101,2.1104,2.1114,2.1117,2.1074,2.1074,2.1074,0,2.1152,2.115,2.1132,2.1133,2.113,2.1109,2.1113,2.1108,2.1096,2.1094,2.1085,2.108,2.1072,2.1077,2.1083,2.1081,2.1082,2.1074,2.1102,2.1105,2.1107,2.1116,2.112,2.1076,2.1076,2.1076,2.1075,0,2.1174,2.1173,2.1178,2.1167,2.1164,2.1167,2.1151,2.115,2.1139,2.1129,2.1132,2.1122,2.1117,2.1117,2.1106,2.1122,2.1117,2.1105,2.1089,2.1113,2.1122,2.1125,2.1078,2.1078,2.1077,2.1077,0,0,2.1215,2.1195,2.1197,2.1193,2.118,2.1179,2.1182,2.1176,2.1177,2.117,2.1172,2.117,2.1159,2.1155,2.1144,2.1149,2.1171,2.1137,2.1136,2.1144,2.1188,2.1197,2.1201,2.1162,2.1163,2.1163,2.1189,0,2.1238,2.1241,2.1226,2.1233,2.1233,2.1214,2.1217,2.121,2.1201,2.12,2.1191,2.1189,2.1175,2.1173,2.1177,2.1167,2.1179,2.1165,2.1165,2.1166,2.1168,2.1205,2.1215,2.1239,2.1192,2.1193,2.1193,0,2.1264,2.1259,2.1267,2.1254,2.1253,2.1256,2.1251,2.125,2.1242,2.1235,2.1232,2.1219,2.1222,2.1207,2.1212,2.1203,2.1202,2.1198,2.1198,2.1197,2.1181,2.1206,2.1247,2.1251,2.1198,2.1197,2.1197,0,2.1294,2.1289,2.1293,2.129,2.1275,2.1278,2.1272,2.1264,2.1262,2.1258,2.1257,2.1253,2.1251,2.1249,2.1236,2.1226,2.1243,2.1226,2.1238,2.1239,2.1242,2.1242,2.1284,2.1242,2.1242,2.1242,2.1242,0,2.1321,2.1327,2.1307,2.1309,2.1315,2.1299,2.1306,2.1298,2.1291,2.1293,2.1277,2.1279,2.1261,2.1262,2.1252,2.1258,2.1257,2.1252,2.125,2.1254,2.1255,2.1253,2.1251,2.1243,2.1242,2.1242,2.1242,0,2.1355,2.1342,2.1345,2.1332,2.1329,2.1334,2.1323,2.1325,2.1316,2.1319,2.1318,2.1304,2.1304,2.1291,2.1288,2.1281,2.1292,2.1286,2.1295,2.1293,2.1305,2.1305,2.1347,2.1353,2.1308,2.1308,2.1308,0,2.1373,2.1377,2.1364,2.1364,2.1359,2.1359,2.1358,2.1342,2.1342,2.1334,2.1338,2.1336,2.1334,2.1335,2.1325,2.1323,2.1317,2.1332,2.1317,2.1321,2.1318,2.1318,2.1318,2.1336,2.1336,2.1337,2.1337,0,2.1407,2.14,2.1398,2.1395,2.1393,2.139,2.1385,2.1386,2.137,2.137,2.137,2.1368,2.1366,2.1365,2.1361,2.1356,2.1344,2.1342,2.1345,2.1349,2.1354,2.1352,2.1304,2.1341,2.1341,2.134,2.134,2.134,2.1433,2.1437,2.1429,2.1427,2.1423,2.1419,2.1421,2.1413,2.1412,2.1409,2.14,2.1402,2.1395,2.1389,2.1386,2.1387,2.138,2.1383,2.1384,2.1385,2.1388,2.1354,2.1386,2.1386,2.1386,2.1386,2.1386,0,2.1467,2.1461,2.146,2.1455,2.1454,2.1443,2.1438,2.1438,2.144,2.1435,2.1434,2.1434,2.1434,2.1424,2.1423,2.1426,2.142,2.1426,2.1425,2.1425,2.1395,2.1393,2.143,2.143,2.143,2.143,2.143,2.143,2.1484,2.1489,2.1482,2.1485,2.148,2.1481,2.1479,2.1476,2.1472,2.1473,2.1473,2.1467,2.146,2.1459,2.1458,2.1455,2.1456,2.1463,2.1459,2.1431,2.1427,2.1423,2.1421,2.1464,2.1464,2.1489,2.1489,2.1489]},{"header":{"parameterUnit":"m.s-1","parameterCategory":1,"la1":30.2991,"la2":30.254,"lo1":-89.0895,"lo2":-89.0444,"dy":0.0017,"dx":0.0017,"nx":28,"ny":28,"refTime":"2023-04-28T21:00:00:Z","depth":0,"parameterNumber":3,"parameterNumberName":"V-component_of_WINDS"},"data":[0,0,0,0,0,0,0,0,0,0,0,0,0,0,0,0,0,0,0,0,0,0,0,0,0,0,0,0,0,0,0,0,0,0,0,0,0,0,0,0,0,0,0,0,0,0,0,0,0,0,0,0,0,0,0,0,0,0,3.2059,3.2061,0,3.2294,3.2296,3.2299,3.2332,3.233,3.2328,3.2326,3.2566,3.2574,3.2582,0,0,0,0,0,0,0,0,0,0,0,0,0,3.1635,3.1643,3.2059,3.2062,3.2065,3.2293,3.2297,3.23,3.2332,3.233,3.2327,3.2325,3.2563,3.2573,3.2583,0,0,0,0,0,0,0,0,0,0,0,0,0,3.1839,3.1645,3.2058,3.2108,3.2115,3.2293,3.2297,3.2301,3.2333,3.233,3.2326,3.2323,3.2559,3.2572,3.2584,3.2728,0,0,3.2623,3.2628,0,0,0,0,0,0,0,0,3.1828,3.1855,3.2098,3.2105,3.2113,3.228,3.2235,3.2444,3.2334,3.225,3.2326,3.2322,3.2473,3.2493,3.2544,3.2739,3.2749,3.2624,3.2632,3.2637,3.2641,0,0,0,0,0,0,0,3.1813,3.1845,3.2152,3.2102,3.2111,3.2118,3.2144,3.2275,3.2377,3.2257,3.226,3.2288,3.2477,3.2532,3.255,3.2753,3.2624,3.2635,3.2643,3.2648,3.3071,3.3075,0,0,0,0,0,0,3.179,3.1833,3.2144,3.2159,3.196,3.2128,3.2157,3.223,3.2376,3.2395,3.229,3.2288,3.2512,3.2535,3.2558,3.2732,3.2637,3.2649,3.2656,3.3068,3.3072,3.3076,0,0,0,0,0,0,3.1781,3.1818,3.2135,3.1997,3.2038,3.2139,3.2221,3.2236,3.2291,3.2401,3.2419,3.2328,3.251,3.2541,3.2684,3.2741,3.2654,3.2666,3.3063,3.3069,3.3074,3.3083,0,0,0,0,0,0,3.1769,3.1814,3.1871,3.1998,3.2045,3.2258,3.2225,3.2243,3.2313,3.2313,3.2441,3.2459,3.251,3.2665,3.2697,3.2757,3.2676,3.3059,3.3066,3.3072,3.3078,3.3088,3.3097,0,0,0,0,0,3.1754,3.1865,3.1874,3.1911,3.2118,3.2261,3.2288,3.2345,3.2318,3.2374,3.2444,3.2455,3.273,3.2679,3.2715,3.278,3.3055,3.3064,3.3072,3.3074,3.3086,3.3097,0,0,0,0,0,0,3.1744,3.1883,3.1894,3.205,3.2143,3.2266,3.234,3.2357,3.2459,3.2455,3.252,3.2549,3.2688,3.2749,3.269,3.2924,3.289,3.2906,3.2879,3.2892,3.2901,3.2883,3.2686,0,0,0,0,0,3.176,3.1865,3.1981,3.2107,3.2153,3.2238,3.2303,3.2338,3.2437,3.2477,3.2557,3.2652,3.276,3.283,3.2935,3.3087,3.3113,3.3149,3.3158,3.3166,3.3178,3.3258,3.3275,3.3103,3.3103,3.3103,0,0,3.1794,3.1883,3.1946,3.2107,3.2184,3.2289,3.2272,3.2386,3.2464,3.2494,3.2634,3.2696,3.2806,3.2953,3.3022,3.3008,3.3231,3.3176,3.3181,3.319,3.3269,3.3285,3.3299,3.3109,3.3108,3.3107,0,0,3.191,3.1989,3.2101,3.2177,3.2292,3.2347,3.2374,3.2494,3.2536,3.2677,3.27,3.2794,3.2979,3.3055,3.3118,3.3258,3.327,3.329,3.3339,3.3416,3.343,3.3442,3.3488,3.3505,3.3302,3.3302,3.3302,0,3.1937,3.2099,3.2156,3.2268,3.2337,3.2368,3.248,3.2551,3.2695,3.2741,3.2723,3.2953,3.303,3.3193,3.3226,3.3277,3.3307,3.3276,3.3423,3.3436,3.3448,3.3493,3.3511,3.3304,3.3304,3.3304,3.3303,0,3.2125,3.2236,3.2313,3.2449,3.2527,3.2638,3.2711,3.2782,3.2809,3.2866,3.3006,3.3099,3.3221,3.3263,3.3292,3.3429,3.3416,3.341,3.3377,3.3465,3.3508,3.3526,3.3306,3.3305,3.3305,3.3305,0,0,3.2243,3.2407,3.2434,3.2494,3.2622,3.2708,3.2819,3.2938,3.2997,3.3094,3.3187,3.334,3.3334,3.3405,3.3442,3.3511,3.361,3.3496,3.3499,3.3511,3.3763,3.3765,3.3784,3.3619,3.3623,3.3626,3.3752,0,3.2371,3.2571,3.2624,3.2793,3.2894,3.2923,3.3019,3.3107,3.3161,3.3254,3.3314,3.342,3.3406,3.3448,3.3517,3.3583,3.3661,3.3575,3.3704,3.3708,3.3673,3.3807,3.3811,3.3926,3.377,3.3773,3.3775,0,3.2548,3.2647,3.2825,3.2936,3.298,3.3066,3.3177,3.3266,3.3364,3.3399,3.3476,3.3506,3.362,3.3581,3.3737,3.3677,3.3733,3.3773,3.3778,3.3791,3.3746,3.3821,3.3965,3.3981,3.3803,3.38,3.3798,0,3.2612,3.279,3.2918,3.297,3.3103,3.3161,3.3219,3.3314,3.3381,3.3478,3.3521,3.363,3.3689,3.3771,3.3828,3.3795,3.3978,3.3945,3.4008,3.4006,3.4045,3.4041,3.4197,3.4084,3.4084,3.4083,3.4083,0,3.2749,3.2856,3.2948,3.3027,3.3147,3.3206,3.3322,3.3381,3.3464,3.3553,3.3586,3.3668,3.3739,3.3831,3.3876,3.3996,3.4024,3.4053,3.4063,3.4049,3.4045,3.4085,3.4078,3.4088,3.4087,3.4086,3.4085,0,3.284,3.2907,3.3048,3.3161,3.3192,3.3275,3.3371,3.3447,3.3501,3.3613,3.3643,3.3728,3.3837,3.3902,3.404,3.407,3.4202,3.421,3.4168,3.4173,3.4231,3.4223,3.4416,3.4442,3.4314,3.4315,3.4316,0,3.2922,3.3004,3.3125,3.3187,3.3245,3.3345,3.3412,3.3472,3.3541,3.3656,3.3718,3.3829,3.392,3.4092,3.4165,3.427,3.4279,3.4339,3.4295,3.4277,3.4277,3.427,3.4277,3.4346,3.4348,3.4348,3.4349,0,3.3058,3.3086,3.3183,3.3289,3.3368,3.3456,3.3542,3.3591,3.3665,3.374,3.3851,3.3922,3.4061,3.4169,3.4279,3.4337,3.4354,3.4362,3.4382,3.4367,3.4338,3.4351,3.4186,3.4358,3.4357,3.4356,3.4356,3.4355,3.3146,3.3219,3.3314,3.3419,3.349,3.3569,3.3645,3.3708,3.3802,3.392,3.3949,3.4065,3.4157,3.4306,3.4366,3.4456,3.4446,3.4475,3.4482,3.4488,3.4487,3.4325,3.4476,3.4476,3.4476,3.4476,3.4476,0,3.3281,3.3343,3.3439,3.3558,3.364,3.3649,3.3744,3.3811,3.3913,3.3997,3.4086,3.4211,3.4315,3.4395,3.4501,3.4557,3.4567,3.4583,3.4578,3.459,3.4492,3.4463,3.4572,3.4572,3.4572,3.4572,3.4572,3.4572,3.3361,3.3484,3.3523,3.368,3.3741,3.3855,3.3907,3.3979,3.4047,3.4185,3.4271,3.4323,3.4404,3.4516,3.461,3.4631,3.4667,3.468,3.4702,3.4608,3.4598,3.4588,3.4561,3.4688,3.4689,3.4792,3.4793,3.4794]}]]